Location: Petrozavodsk
(61.7857°N, 34.3593°E)
Time: 09:30:04
(UTC+03:00)

Terra - Pass Details

Date: 23 October 2019
Orbit: 701 x 703 km, 98.2° (Epoch: 11 November)

Event Time Altitude Azimuth Distance (km) Brightness Sun altitude
Exits shadow 23:41:25 14° 318° (NW) 1,896 4.5 -39.1°
Drops below altitude 10° 23:42:22 10° 326° (NW) 2,185 5.0 -39.1°
Sets 23:45:00 0° 340° (NNW) 3,108 6.1 -39.2°
